Home   Weather   Christchurch   Past weeks

Flag for New Zealand Past Weather in Christchurch, New Zealand — Yesterday and Last 2 Weeks

Now
54 °F

Rain. Overcast.


Feels Like: 49 °F
Forecast: 52 / 61 °F
Wind: 15 mph from South

Location: Christchurch Airport

Current Time: Dec 11, 2016 at 1:57:51 am

Latest Report: Dec 11, 2016 at 1:30 am


Visibility: 6 mi

Pressure: 29.53 "Hg

Humidity: 94%

Dew Point: 52 °F

Location of ChristchurchLocation

Past Weather in Christchurch — Graph

°F

Christchurch Temperature Yesterday

Maximum temperature yesterday: 81 °F (at 1:30 pm)
Minimum temperature yesterday: 55 °F (at 2:30 am)
Average temperature yesterday: 67 °F

High & Low Weather Summary for the Past Weeks

 TemperatureHumidityPressure
High81 °F (Dec 6, 12:30 pm)100% (Nov 30, 7:00 pm)30.15 "Hg (Nov 30, 7:00 pm)
Low43 °F (Dec 3, 4:00 am)17% (Nov 29, 5:30 pm)29.00 "Hg (Nov 27, 3:00 am)
Average58 °F68%29.70 "Hg
* Reported Nov 26 12:00 am — Dec 11 12:30 am, Christchurch, Weather by CustomWeather, © 2016

Note: Actual official high and low records may vary slightly from our data, if they occured in-between our weather recording intervals... More about our weather records

Advertising

Christchurch Weather History for the Previous 24 Hours

Scroll right to see more
 ConditionsComfort  
Time TempWeatherWind HumidityBarometerVisibility
12:30 am
Sun, Dec 11
54 °FHeavy rain. Passing clouds.8 mph94%29.53 "Hg1 mi
12:00 am55 °FLight rain. Overcast.12 mph88%29.50 "Hg6 mi
11:30 pm
Sat, Dec 10
57 °FLight rain. Overcast.18 mph82%29.47 "HgN/A
11:00 pm57 °FDrizzle. Mostly cloudy.16 mph88%29.47 "HgN/A
10:30 pm57 °FOvercast.21 mph88%29.45 "HgN/A
10:00 pm59 °FOvercast.16 mph82%29.45 "HgN/A
9:30 pm61 °FPassing clouds.18 mph77%29.39 "HgN/A
9:00 pm68 °FMild.14 mph46%29.36 "HgN/A
8:30 pm70 °FMild.12 mph40%29.33 "HgN/A
8:00 pm72 °FMild.14 mph36%29.33 "HgN/A
7:30 pm73 °FMild.17 mph33%29.30 "HgN/A
7:00 pm75 °FMild.18 mph34%29.30 "HgN/A
6:30 pm73 °FMild.18 mph33%29.30 "HgN/A
6:00 pm77 °FPleasantly warm.23 mph28%29.30 "HgN/A
5:30 pm77 °FPleasantly warm.24 mph26%29.30 "HgN/A
5:00 pm77 °FPleasantly warm.21 mph26%29.30 "HgN/A
4:30 pm79 °FPleasantly warm.23 mph26%29.30 "HgN/A
4:00 pm81 °FPleasantly warm.24 mph24%29.30 "HgN/A
3:30 pm79 °FWarm.14 mph48%29.30 "HgN/A
3:00 pm81 °FPassing clouds.22 mph42%29.30 "HgN/A
2:30 pm77 °FPartly sunny.16 mph44%29.30 "HgN/A
2:00 pm79 °FPassing clouds.20 mph45%29.27 "HgN/A
1:30 pm81 °FPleasantly warm.18 mph39%29.30 "HgN/A
1:00 pm77 °FWarm.21 mph44%29.30 "HgN/A
12:30 pm77 °FWarm.20 mph44%29.30 "HgN/A
12:00 pm73 °FMild.17 mph47%29.30 "HgN/A
11:30 am72 °FScattered clouds.17 mph47%29.30 "HgN/A
11:00 am72 °FPartly sunny.16 mph47%29.33 "HgN/A
10:30 am72 °FPassing clouds.21 mph44%29.33 "HgN/A
10:00 am70 °FOvercast.13 mph43%29.33 "HgN/A
9:30 am70 °FOvercast.17 mph43%29.33 "HgN/A
9:00 am68 °FPartly sunny.10 mph46%29.33 "HgN/A
8:30 am64 °FScattered clouds.9 mph52%29.33 "HgN/A
8:00 am63 °FMild.3 mph59%29.33 "HgN/A
7:30 am59 °FCool.5 mph82%29.33 "HgN/A
7:00 am57 °FCool.2 mph82%29.33 "HgN/A
6:30 am59 °FCool.6 mph82%29.33 "HgN/A
6:00 am63 °FMild.10 mph59%29.33 "HgN/A
5:30 am63 °FMild.12 mph59%29.33 "HgN/A
5:00 am63 °FMild.15 mph59%29.33 "HgN/A
4:30 am63 °FMild.17 mph59%29.33 "HgN/A
4:00 am63 °FMild.15 mph59%29.36 "HgN/A
3:30 am61 °FCool.7 mph63%29.39 "HgN/A
3:00 am57 °FCool.3 mph77%29.42 "HgN/A
2:30 am55 °FCool.2 mph88%29.42 "HgN/A
2:00 am57 °FCool.9 mph88%29.45 "HgN/A
1:30 am57 °FCool.9 mph94%29.45 "HgN/A
1:00 am59 °FCool.9 mph88%29.47 "HgN/A
Weather by CustomWeather, © 2016

See weather overviewHow to use our weather pages